Hourly Weather Bartoszewice

Today, 8 March, Monday

Time Temperature Precipitation Wind Pressure Humidity
00:00 -3°C° 0 mm 2 mps 752 mmHg 84%
01:00 -5°C° 0 mm 2 mps 752 mmHg 86%
02:00 -5°C° 0 mm 2 mps 752 mmHg 84%
03:00 -6°C° 0 mm 3 mps 752 mmHg 82%
04:00 -6°C° 0 mm 3 mps 752 mmHg 80%
05:00 -5°C° 0 mm 3 mps 753 mmHg 80%
06:00 -5°C° 0 mm 3 mps 753 mmHg 79%
07:00 -5°C° 0 mm 3 mps 753 mmHg 79%
08:00 -2°C° 0 mm 3 mps 754 mmHg 73%
09:00 -2°C° 0 mm 4 mps 755 mmHg 68%
10:00 -1°C° 0 mm 4 mps 755 mmHg 63%
11:00 0°C° 0.1 mm 5 mps 755 mmHg 61%
12:00 0°C° 0.1 mm 5 mps 755 mmHg 58%
13:00 0°C° 0 mm 4 mps 755 mmHg 56%
14:00 0°C° 0.1 mm 4 mps 755 mmHg 58%
15:00 0°C° 0.1 mm 4 mps 756 mmHg 60%
16:00 -1°C° 0.1 mm 4 mps 756 mmHg 61%
17:00 -2°C° 0 mm 4 mps 756 mmHg 67%
18:00 -2°C° 0 mm 3 mps 756 mmHg 74%
19:00 -3°C° 0 mm 2 mps 757 mmHg 80%
20:00 -3°C° 0 mm 2 mps 757 mmHg 81%
21:00 -4°C° 0 mm 2 mps 757 mmHg 82%
22:00 -4°C° 0 mm 2 mps 757 mmHg 84%
23:00 -2°C° 0 mm 1 mps 757 mmHg 84%

Tomorrow, 9 March, Tuesday

Time Temperature Precipitation Wind Pressure Humidity
00:00 -2°C° 0 mm 1 mps 757 mmHg 84%
01:00 -2°C° 0 mm 1 mps 757 mmHg 84%
02:00 -2°C° 0 mm 1 mps 757 mmHg 84%
03:00 -2°C° 0 mm 1 mps 757 mmHg 83%
04:00 -2°C° 0 mm 0 mps 757 mmHg 82%
05:00 -2°C° 0 mm 0 mps 757 mmHg 81%
06:00 -2°C° 0 mm 0 mps 757 mmHg 80%
07:00 -2°C° 0 mm 0 mps 757 mmHg 79%
08:00 -1°C° 0 mm 1 mps 758 mmHg 75%
09:00 0°C° 0 mm 1 mps 758 mmHg 70%
10:00 +1°C° 0 mm 1 mps 758 mmHg 66%
11:00 -1°C° 0 mm 2 mps 758 mmHg 62%
12:00 +1°C° 0 mm 2 mps 757 mmHg 58%
13:00 +1°C° 0 mm 2 mps 757 mmHg 54%
14:00 +1°C° 0 mm 2 mps 757 mmHg 55%
15:00 +1°C° 0 mm 2 mps 757 mmHg 56%
16:00 +1°C° 0 mm 2 mps 756 mmHg 56%
17:00 -1°C° 0 mm 2 mps 756 mmHg 61%
18:00 -2°C° 0 mm 2 mps 756 mmHg 65%
19:00 -3°C° 0 mm 2 mps 756 mmHg 70%
20:00 -3°C° 0 mm 2 mps 757 mmHg 71%
21:00 -3°C° 0 mm 2 mps 757 mmHg 73%
22:00 -4°C° 0 mm 2 mps 757 mmHg 75%
23:00 -4°C° 0 mm 2 mps 757 mmHg 73%

Day after tomorrow, 10 March, Wednesday

Time Temperature Precipitation Wind Pressure Humidity
00:00 -4°C° 0 mm 2 mps 757 mmHg 72%
01:00 -4°C° 0 mm 2 mps 757 mmHg 71%
02:00 -4°C° 0 mm 2 mps 756 mmHg 70%
03:00 -4°C° 0 mm 2 mps 756 mmHg 69%
04:00 -4°C° 0 mm 2 mps 756 mmHg 68%
05:00 -4°C° 0 mm 2 mps 756 mmHg 67%
06:00 -2°C° 0 mm 1 mps 756 mmHg 66%
07:00 -2°C° 0 mm 1 mps 757 mmHg 66%
08:00 0°C° 0 mm 1 mps 757 mmHg 61%
09:00 -1°C° 0 mm 2 mps 757 mmHg 56%
10:00 +1°C° 0 mm 2 mps 757 mmHg 51%
11:00 +2°C° 0 mm 2 mps 757 mmHg 48%
12:00 +2°C° 0 mm 2 mps 757 mmHg 46%
13:00 +3°C° 0 mm 2 mps 757 mmHg 44%
14:00 +4°C° 0 mm 1 mps 757 mmHg 45%
15:00 +4°C° 0 mm 1 mps 757 mmHg 46%
16:00 +3°C° 0 mm 0 mps 757 mmHg 48%
17:00 +2°C° 0 mm 1 mps 757 mmHg 52%
18:00 +1°C° 0 mm 1 mps 757 mmHg 56%
19:00 -2°C° 0 mm 2 mps 757 mmHg 60%
20:00 -2°C° 0 mm 2 mps 757 mmHg 63%
21:00 -3°C° 0 mm 2 mps 757 mmHg 65%
22:00 -4°C° 0 mm 3 mps 757 mmHg 67%
23:00 -4°C° 0 mm 3 mps 757 mmHg 67%

11 March, Thursday

Time Temperature Precipitation Wind Pressure Humidity
00:00 -4°C° 0 mm 3 mps 757 mmHg 66%
01:00 -4°C° 0 mm 3 mps 757 mmHg 66%
02:00 -4°C° 0 mm 3 mps 756 mmHg 65%
03:00 -4°C° 0 mm 3 mps 756 mmHg 64%
04:00 -4°C° 0 mm 3 mps 755 mmHg 62%
05:00 -4°C° 0 mm 4 mps 755 mmHg 61%
06:00 -4°C° 0 mm 4 mps 755 mmHg 59%
07:00 -4°C° 0 mm 4 mps 755 mmHg 57%
08:00 -4°C° 0 mm 5 mps 754 mmHg 53%
09:00 -2°C° 0 mm 6 mps 754 mmHg 49%
10:00 -1°C° 0 mm 7 mps 753 mmHg 44%
11:00 -1°C° 0 mm 7 mps 752 mmHg 43%
12:00 0°C° 0 mm 8 mps 752 mmHg 42%
13:00 +1°C° 0 mm 8 mps 751 mmHg 41%
14:00 +1°C° 0 mm 8 mps 750 mmHg 45%
15:00 0°C° 0 mm 8 mps 749 mmHg 48%
16:00 0°C° 0 mm 7 mps 748 mmHg 51%
17:00 0°C° 0.5 mm 8 mps 747 mmHg 66%
18:00 -1°C° 0.5 mm 8 mps 747 mmHg 80%
19:00 -2°C° 0.5 mm 8 mps 746 mmHg 95%
20:00 -1°C° 0.6 mm 8 mps 745 mmHg 95%
21:00 -1°C° 0.6 mm 7 mps 745 mmHg 94%
22:00 -1°C° 0.6 mm 7 mps 744 mmHg 94%
23:00 +1°C° 0.8 mm 6 mps 744 mmHg 95%

12 March, Friday

Time Temperature Precipitation Wind Pressure Humidity
00:00 +1°C° 0.8 mm 5 mps 743 mmHg 96%
01:00 +1°C° 0.8 mm 4 mps 743 mmHg 97%
02:00 +1°C° 0.4 mm 4 mps 743 mmHg 96%
03:00 +1°C° 0.4 mm 4 mps 743 mmHg 96%
04:00 +1°C° 0.4 mm 4 mps 743 mmHg 95%
05:00 +2°C° 0 mm 5 mps 743 mmHg 94%
06:00 +2°C° 0 mm 5 mps 743 mmHg 92%
07:00 +2°C° 0 mm 6 mps 744 mmHg 90%
08:00 +2°C° 0 mm 6 mps 744 mmHg 86%
09:00 +3°C° 0 mm 7 mps 745 mmHg 82%
10:00 +3°C° 0 mm 7 mps 745 mmHg 78%
11:00 +4°C° 0.1 mm 7 mps 746 mmHg 74%
12:00 +4°C° 0.1 mm 7 mps 747 mmHg 69%
13:00 +5°C° 0.1 mm 7 mps 747 mmHg 65%
14:00 +5°C° 0.1 mm 6 mps 747 mmHg 65%
15:00 +6°C° 0.1 mm 5 mps 747 mmHg 65%
16:00 +6°C° 0.1 mm 5 mps 748 mmHg 66%
17:00 +5°C° 0 mm 4 mps 748 mmHg 70%
18:00 +4°C° 0 mm 4 mps 748 mmHg 74%
19:00 +1°C° 0 mm 4 mps 748 mmHg 78%
20:00 +1°C° 0 mm 4 mps 748 mmHg 79%
21:00 +1°C° 0 mm 4 mps 748 mmHg 80%
22:00 +1°C° 0 mm 4 mps 748 mmHg 81%
23:00 0°C° 0 mm 4 mps 747 mmHg 81%

13 March, Saturday

Time Temperature Precipitation Wind Pressure Humidity
00:00 0°C° 0 mm 5 mps 747 mmHg 81%
01:00 0°C° 0 mm 5 mps 747 mmHg 80%
02:00 0°C° 0 mm 5 mps 746 mmHg 80%
03:00 0°C° 0 mm 5 mps 746 mmHg 81%
04:00 0°C° 0 mm 5 mps 746 mmHg 81%
05:00 +1°C° 0 mm 5 mps 746 mmHg 82%
06:00 +1°C° 0 mm 5 mps 746 mmHg 83%
07:00 +1°C° 0 mm 5 mps 746 mmHg 85%
08:00 +2°C° 0 mm 5 mps 746 mmHg 81%
09:00 +3°C° 0 mm 5 mps 747 mmHg 78%
10:00 +5°C° 0 mm 5 mps 747 mmHg 74%
11:00 +4°C° 0.1 mm 6 mps 747 mmHg 73%
12:00 +4°C° 0.1 mm 6 mps 747 mmHg 71%
13:00 +5°C° 0.1 mm 6 mps 747 mmHg 69%
14:00 +5°C° 0.1 mm 6 mps 747 mmHg 67%
15:00 +6°C° 0.1 mm 5 mps 747 mmHg 66%
16:00 +6°C° 0.1 mm 5 mps 746 mmHg 65%
17:00 +5°C° 0 mm 5 mps 746 mmHg 69%
18:00 +4°C° 0 mm 4 mps 746 mmHg 74%
19:00 +3°C° 0 mm 4 mps 745 mmHg 79%
20:00 +2°C° 0 mm 5 mps 745 mmHg 79%
21:00 +3°C° 0 mm 5 mps 744 mmHg 78%
22:00 +3°C° 0 mm 6 mps 744 mmHg 78%
23:00 +3°C° 0.1 mm 6 mps 743 mmHg 81%
Show more